Torna al catalogo

OPS 4682 DEB

AttivoPO
NORAD 13131·DEBRIS·🇺🇸 United States

Lanciato Apr 3, 1965 da Vandenberg Space Force Base

Loading…

Prossimi Passaggi (prossime 24 ore)

TLE

AggiornatoSource: Space-Track

Epoca: Sep 12, 2026, 01:18 UTC

1 13131U 65027H   26255.05466644  .00000596  00000-0  20059-2 0  9992
2 13131  90.2380 355.2665 0030361 194.7183 290.2118 12.98085293641978

Traccia OPS 4682 DEB in tempo reale con AllMySat

Download on the App Store